Location: B�rgermoos
(47.6500°N, 9.0667°E)
Time: 01:02:51
(UTC+00:00)

Tiros 1 - Pass Details

Date: 09 August 2021
Orbit: 630 x 663 km, 48.4° (Epoch: 16 September)

Event Time Altitude Azimuth Distance (km) Brightness Sun altitude
Rises 13:02:00 0° 192° (SSW) 2,981 11.1 52.7°
Reaches altitude 10° 13:05:18 10° 168° (SSE) 2,074 10.2 52.4°
Maximum altitude 13:07:53 15° 135° (SE) 1,789 9.7 52.1°
Drops below altitude 10° 13:10:28 10° 103° (ESE) 2,078 9.7 51.8°
Sets 13:13:47 0° 79° (E) 2,990 10.3 51.4°
